KC5EZZ-13 Weather Reports


time (UTC)temp
F
wind
direction
speed
knots
gust
knots
rain 1hr
in
rain 24hr
in
rain mn
in
humidity
%
barometer
mb
20260504003104 73 160 2.6 7.0 0.00 0.00 0.00 42 1016.6
20260504001558 74 162 4.3 6.1 0.00 0.00 0.00 42 1016.7
20260504000059 74 177 4.3 8.7 0.00 0.00 0.00 42 1016.7
20260503234555 75 202 6.1 10.4 0.00 0.00 0.00 42 1017.0
20260503233054 75 192 5.2 10.4 0.00 0.00 0.00 42 1016.8
20260503231552 75 206 6.1 11.3 0.00 0.00 0.00 43 1017.0
20260503230110 75 184 5.2 7.8 0.00 0.00 0.00 43 1017.2
20260503224551 75 181 6.1 9.6 0.00 0.00 0.00 43 1017.7
20260503223109 76 148 7.8 12.2 0.00 0.00 0.00 44 1017.6
20260503221554 77 191 7.0 13.0 0.00 0.00 0.00 45 1017.6
20260503220055 77 172 7.0 12.2 0.00 0.00 0.00 45 1017.6
20260503214557 77 186 8.7 14.8 0.00 0.00 0.00 46 1018.1
20260503213051 78 177 5.2 9.6 0.00 0.00 0.00 46 1018.3
20260503211553 77 174 5.2 11.3 0.00 0.00 0.00 47 1018.6
20260503210054 77 198 6.1 13.0 0.00 0.00 0.00 48 1018.9
20260503204557 77 211 2.6 14.8 0.00 0.00 0.00 49 1019.2
20260503203051 76 210 7.8 16.5 0.00 0.00 0.00 50 1019.8
20260503201553 77 143 7.8 13.9 0.00 0.00 0.00 51 1019.8
20260503200055 77 179 7.8 13.0 0.00 0.00 0.00 52 1020.1
20260503194616 77 186 6.1 13.0 0.00 0.00 0.00 53 1020.2
20260503193105 77 219 6.1 13.0 0.00 0.00 0.00 54 1020.6
20260503191557 76 180 2.6 11.3 0.00 0.00 0.00 56 1020.8
20260503190051 76 211 6.1 15.6 0.00 0.00 0.00 57 1021.0
20260503184553 76 168 9.6 13.0 0.00 0.00 0.00 59 1021.3
20260503183101 76 141 6.1 13.9 0.00 0.00 0.00 61 1021.5
20260503181607 75 198 6.1 13.0 0.00 0.00 0.00 62 1021.8
20260503180056 75 179 4.3 11.3 0.00 0.00 0.00 64 1022.2
20260503174606 76 244 1.7 9.6 0.00 0.00 0.00 65 1022.6
20260503173053 76 172 1.7 11.3 0.00 0.00 0.00 67 1022.8
20260503171555 75 220 4.3 13.0 0.00 0.00 0.00 68 1023.0
20260503170107 74 195 7.8 13.0 0.00 0.00 0.00 69 1023.1
20260503150105 75 0 0.0 4.3 0.00 0.00 0.00 74 1024.0
20260503120107 48 0 0.0 0.9 0.00 0.00 0.00 68 1022.7
20260503081554 52 0 0.0 0.9 0.00 0.00 0.00 61 1022.4
20260503071554 52 0 0.0 0.9 0.00 0.00 0.00 59 1022.6
20260503060103 55 0 0.0 1.7 0.00 0.00 0.00 57 1022.8
20260503054553 55 0 0.0 3.5 0.00 0.00 0.00 56 1022.9
20260503053053 54 0 0.0 0.0 0.00 0.00 0.00 55 1022.8
20260503051550 54 0 0.0 0.9 0.00 0.00 0.00 55 1022.6
20260503050053 54 0 0.0 0.0 0.00 0.00 0.00 54 1022.6
20260503044604 55 0 0.0 0.9 0.00 0.00 0.00 54 1022.8
20260503043056 55 192 0.0 0.9 0.00 0.00 0.00 53 1022.8
20260503041612 56 0 0.0 0.0 0.00 0.00 0.00 53 1022.7
20260503040057 56 0 0.0 0.0 0.00 0.00 0.00 52 1022.5
20260503034558 57 0 0.0 0.0 0.00 0.00 0.00 52 1022.5
20260503033114 57 0 0.0 0.0 0.00 0.00 0.00 52 1022.3
20260503031601 58 0 0.0 0.0 0.00 0.00 0.00 51 1022.2
20260503030109 59 0 0.0 0.0 0.00 0.00 0.00 51 1022.1
20260503024601 60 0 0.0 0.0 0.00 0.00 0.00 51 1022.0
20260503023056 60 0 0.0 0.0 0.00 0.00 0.00 51 1021.8
20260503021554 60 0 0.0 0.0 0.00 0.00 0.00 51 1021.7
20260503020058 61 0 0.0 0.0 0.00 0.00 0.00 51 1021.4
20260503014553 62 0 0.0 0.0 0.00 0.00 0.00 52 1021.4
20260503013053 65 0 0.0 0.0 0.00 0.00 0.00 52 1021.2
20260503011602 67 0 0.0 0.9 0.00 0.00 0.00 53 1021.0
20260503010058 68 158 0.9 1.7 0.00 0.00 0.00 53 1021.0
20260503004551 69 186 0.9 1.7 0.00 0.00 0.00 54 1021.0